sat.trackr.live / text

‹ back to catalog

STARLINK-36910

NORAD 68005 · 2026-039V

PAYLOAD ACTIVE UNKNOWN

§ Identity

Operator
Country
US
Launch date
2026-02-27
Launch site
AFETR
Launch vehicle
Mass (kg)
RCS (m²)

Purposes: comms

External: N2YO · Heavens-Above · Gunter

§ Orbital elements

Epoch: 2026-05-24T22:48:47.406816Z

Period
94.27 min
Inclination
43.0027°
Eccentricity
0.0001657
Mean motion
15.27588011 rev/d
Perigee alt
481.9 km
Apogee alt
484.2 km
Semi-major
6,861.2 km
B*
6.2069e-4
RAAN
338.4948°
Arg perigee
275.4578°
Mean anomaly
84.6084°
Rev number
1,336

§ Raw data

STARLINK-369101 68005U 26039V   26144.95054869  .00016861  00000+0  62069-3 0  99992 68005  43.0027 338.4948 0001657 275.4578  84.6084 15.27588011 13364

JSON: /api/v1/satellites/68005 · /tle

For live sub-satellite position, see the globe view (requires WebGL).

§ Visibility from observer

Set your observer location to see the next 7 days of passes ≥ 10°. The values pass through the URL so the page stays shareable.

No JS? Fill the form by hand. The geolocation button needs JavaScript.